Weather History for Kansas City, MO

Change the Weather History Date:

Monday, April 29, 2013

  Actual Average Record
Temperature  
Mean Temperature 72 °F -  
Max Temperature 84 °F 68 °F 86 °F (2007)
Min Temperature 61 °F 49 °F 39 °F (2008)
Cooling Degree Days 8    
Growing Degree Days 22 (Base 50)    
Moisture  
Dew Point 56 °F    
Average Humidity 57    
Maximum Humidity 72    
Minimum Humidity 41    
Precipitation  
Precipitation 0.00 in - - ()
Sea Level Pressure  
Sea Level Pressure 29.71 in    
Wind  
Wind Speed 10 mph (SSW)    
Max Wind Speed 22 mph    
Max Gust Speed 33 mph    
Visibility 10 miles    
Events      
Averages and records for this station are not official NWS values.
T = Trace of Precipitation, MM = Missing Value Source: NWS Daily Summary

Daily Weather History Graph

Daily Weather History Graph

Search for Another Location

Airport:

Trip Planner

Search our weather history database for the weather conditions in past years. The results will help you decide how hot, cold, wet, or windy it might be!

Date:

Astronomy

Apr. 29, 2013 Rise Set
Actual Time 6:22 AM CDT 8:09 PM CDT
Civil Twilight 5:53 AM CDT 8:38 PM CDT
Nautical Twilight 5:18 AM CDT 9:13 PM CDT
Astronomical Twilight 4:41 AM CDT 9:50 PM CDT
Moon No Moon Rise 9:44 AM CDT (4/29)
Length of Visible Light 14h 44m
Length of Day
13h 47m
Waning Gibbous, 80% of the Moon is Illuminated
Apr 29
Waning Gibbous
May 2
Last Quarter
May 9
New
May 17
First Quarter
May 24
Full

Hourly Weather History & Observations

Time (CDT) Temp. Heat Index Dew Point Humidity Pressure Visibility Wind Dir Wind Speed Gust Speed Precip Events Conditions
12:54 AM 62.1 °F - 53.1 °F 72% 29.80 in 10.0 mi SSW 4.6 mph - N/A   Clear
1:54 AM 61.0 °F - 51.1 °F 70% 29.79 in 10.0 mi SSW 5.8 mph - N/A   Clear
2:54 AM 61.0 °F - 51.1 °F 70% 29.77 in 10.0 mi SSW 6.9 mph - N/A   Clear
3:54 AM 61.0 °F - 51.1 °F 70% 29.77 in 10.0 mi SSW 8.1 mph - N/A   Clear
4:54 AM 62.1 °F - 51.1 °F 67% 29.78 in 10.0 mi SSW 10.4 mph - N/A   Clear
5:54 AM 62.1 °F - 51.1 °F 67% 29.78 in 10.0 mi SSW 11.5 mph - N/A   Clear
6:54 AM 62.1 °F - 52.0 °F 70% 29.80 in 10.0 mi SSW 10.4 mph - N/A   Clear
7:54 AM 64.0 °F - 54.0 °F 70% 29.80 in 10.0 mi SSW 5.8 mph - N/A   Clear
8:54 AM 66.9 °F - 57.0 °F 70% 29.79 in 10.0 mi SSW 11.5 mph - N/A   Clear
9:54 AM 72.0 °F - 59.0 °F 64% 29.76 in 10.0 mi SW 9.2 mph 19.6 mph N/A   Clear
10:54 AM 73.9 °F - 60.1 °F 62% 29.74 in 10.0 mi SSW 12.7 mph 21.9 mph N/A   Clear
11:54 AM 78.1 °F - 60.1 °F 54% 29.73 in 10.0 mi SW 10.4 mph - N/A   Clear
12:54 PM 80.1 °F 80.9 °F 60.1 °F 50% 29.70 in 10.0 mi SW 13.8 mph 19.6 mph N/A   Clear
1:54 PM 81.0 °F 81.7 °F 61.0 °F 50% 29.68 in 10.0 mi SW 12.7 mph - N/A   Clear
2:54 PM 82.9 °F 83.3 °F 61.0 °F 47% 29.67 in 10.0 mi South 15.0 mph - N/A   Clear
3:54 PM 84.0 °F 83.8 °F 59.0 °F 43% 29.64 in 10.0 mi SSW 15.0 mph 21.9 mph N/A   Clear
4:54 PM 84.0 °F 83.5 °F 57.9 °F 41% 29.63 in 10.0 mi SSW 20.7 mph 27.6 mph N/A   Clear
5:54 PM 82.9 °F 83.7 °F 62.1 °F 49% 29.61 in 10.0 mi SSW 13.8 mph 21.9 mph N/A   Clear
6:54 PM 82.0 °F 82.4 °F 60.1 °F 47% 29.61 in 10.0 mi South 15.0 mph 26.5 mph N/A   Clear
7:54 PM 80.1 °F 80.7 °F 59.0 °F 48% 29.62 in 10.0 mi South 20.7 mph 27.6 mph N/A   Clear
8:54 PM 78.1 °F - 61.0 °F 56% 29.62 in 10.0 mi South 12.7 mph 20.7 mph N/A   Clear
9:54 PM 78.1 °F - 55.9 °F 46% 29.62 in 10.0 mi South 21.9 mph 33.4 mph N/A   Clear
10:54 PM 75.9 °F - 55.0 °F 48% 29.63 in 10.0 mi South 17.3 mph 31.1 mph N/A   Clear
11:54 PM 75.9 °F - 53.1 °F 45% 29.63 in 10.0 mi South 17.3 mph 25.3 mph N/A   Clear